KV9E Weather Reports


Display with metric or nautical units.
time (UTC)temp
F
wind
direction
speed
MPH
gust
MPH
rain 1hr
in
rain 24hr
in
rain mn
in
humidity
%
barometer
mb
20260906031606 74 166 0.0 0.0 0.00 0.00 0.00 95 1013.4
20260906031102 75 149 0.0 2.0 0.00 0.00 0.00 94 1013.8
20260906030601 75 179 0.0 0.0 0.00 0.00 0.00 93 1013.5
20260906030055 75 192 0.0 0.0 0.00 0.00 0.00 93 1013.5
20260906025550 75 171 0.0 0.0 0.00 0.00 0.00 93 1013.6
20260906025049 75 169 0.0 0.0 0.00 0.00 0.00 93 1014.1
20260906024543 75 163 0.0 0.0 0.00 0.00 0.00 92 1013.4
20260906024038 75 171 0.0 0.0 0.00 0.00 0.00 92 1013.4
20260906023534 75 170 0.0 0.0 0.00 0.00 0.00 92 1013.5
20260906023029 75 173 0.0 0.0 0.00 0.00 0.00 92 1013.1
20260906022523 75 173 0.0 0.0 0.00 0.00 0.00 91 1013.1
20260906022013 75 173 0.0 0.0 0.00 0.00 0.00 91 1013.3
20260906021508 75 171 0.0 0.0 0.00 0.00 0.00 91 1012.9
20260906021002 75 171 0.0 0.0 0.00 0.00 0.00 91 1012.6
20260906020456 75 169 0.0 0.0 0.00 0.00 0.00 90 1012.7
20260906015956 76 150 1.0 2.0 0.00 0.00 0.00 90 1012.5
20260906015455 75 170 0.0 0.0 0.00 0.00 0.00 91 1012.8
20260906014955 75 161 0.0 0.0 0.00 0.00 0.00 92 1012.6
20260906014455 75 173 0.0 0.0 0.00 0.00 0.00 92 1012.8
20260906013945 75 168 0.0 0.0 0.00 0.00 0.00 92 1012.7
20260906013440 75 172 0.0 0.0 0.00 0.00 0.00 92 1012.6
20260906012936 76 168 0.0 0.0 0.00 0.00 0.00 90 1012.6
20260906012431 77 169 0.0 0.0 0.00 0.00 0.00 86 1012.5
20260906011930 77 167 0.0 0.0 0.00 0.00 0.00 85 1012.4
20260906011426 77 173 0.0 0.0 0.00 0.00 0.00 85 1012.5
20260906010921 77 179 0.0 0.0 0.00 0.00 0.00 84 1012.4
20260906010416 77 177 0.0 0.0 0.00 0.00 0.00 85 1012.6
20260906005912 77 177 0.0 0.0 0.00 0.00 0.00 86 1012.7
20260906005412 77 178 0.0 0.0 0.00 0.00 0.00 87 1012.8
20260906004904 77 175 0.0 0.0 0.00 0.00 0.00 88 1012.8
20260906004359 77 175 0.0 0.0 0.00 0.00 0.00 89 1012.9
20260906003855 77 179 0.0 0.0 0.00 0.00 0.00 89 1012.9
20260906003350 77 171 0.0 0.0 0.00 0.00 0.00 88 1013.0
20260906002845 78 167 0.0 0.0 0.00 0.00 0.00 85 1012.8
20260906002345 78 160 0.0 0.0 0.00 0.00 0.00 85 1012.9
20260906001841 78 181 0.0 0.0 0.00 0.00 0.00 85 1012.9
20260906001336 79 177 0.0 0.0 0.00 0.00 0.00 84 1013.0
20260906000831 79 177 0.0 0.0 0.00 0.00 0.00 84 1013.0
20260906000326 79 183 0.0 0.0 0.00 0.00 0.00 83 1012.7
20260905235826 79 174 0.0 0.0 0.00 0.00 0.00 83 1012.8
20260905235326 79 180 0.0 0.0 0.00 0.00 0.00 82 1012.8
20260905234821 80 181 0.0 0.0 0.00 0.00 0.00 81 1013.0
20260905234316 80 175 0.0 0.0 0.00 0.00 0.00 80 1012.7
20260905233811 81 178 0.0 0.0 0.00 0.00 0.00 79 1012.4
20260905233306 81 177 0.0 0.0 0.00 0.00 0.00 78 1012.5
20260905232805 82 175 0.0 0.0 0.00 0.00 0.00 77 1012.2
20260905232305 82 171 0.0 0.0 0.00 0.00 0.00 76 1012.4
20260905231757 82 172 0.0 0.0 0.00 0.00 0.00 75 1012.5
20260905231251 83 186 0.0 0.0 0.00 0.00 0.00 76 1012.6
20260905230742 84 169 0.0 0.0 0.00 0.00 0.00 72 1012.5
20260905230239 84 175 0.0 0.0 0.00 0.00 0.00 73 1012.6
20260905225733 84 172 0.0 0.0 0.00 0.00 0.00 72 1012.6
20260905225229 85 180 0.0 0.0 0.00 0.00 0.00 71 1012.7
20260905224727 86 177 0.0 0.0 0.00 0.00 0.00 68 1012.5
20260905224223 87 183 0.0 0.0 0.00 0.00 0.00 68 1012.5
20260905223719 87 186 0.0 0.0 0.00 0.00 0.00 66 1012.4
20260905223216 88 193 0.0 0.0 0.00 0.00 0.00 66 1012.7
20260905222712 88 197 0.0 0.0 0.00 0.00 0.00 65 1012.8
20260905222210 88 187 0.0 0.0 0.00 0.00 0.00 63 1012.4
20260905221706 88 189 0.0 0.0 0.00 0.00 0.00 65 1012.6
20260905221203 87 189 0.0 0.0 0.00 0.00 0.00 67 1012.6
20260905220658 88 173 2.0 2.0 0.00 0.00 0.00 68 1012.8
20260905220155 89 192 0.0 0.0 0.00 0.00 0.00 65 1012.8
20260905215649 87 197 0.0 0.0 0.00 0.00 0.00 65 1012.7
20260905215144 87 193 0.0 0.0 0.00 0.00 0.00 65 1012.8
20260905214640 86 210 0.0 0.0 0.00 0.00 0.00 65 1012.8
20260905214135 85 187 0.0 0.0 0.00 0.00 0.00 66 1012.8
20260905213631 85 173 0.0 0.0 0.00 0.00 0.00 68 1012.8
20260905213126 85 191 0.0 0.0 0.00 0.00 0.00 63 1012.7
20260905212621 82 191 0.0 0.0 0.00 0.00 0.00 67 1013.1
20260905212121 81 178 0.0 0.0 0.00 0.00 0.00 70 1013.0
20260905211616 81 173 0.0 0.0 0.00 0.00 0.00 70 1013.1
20260905211111 81 173 0.0 0.0 0.00 0.00 0.00 70 1013.0
20260905210607 82 161 1.0 2.0 0.00 0.00 0.00 71 1013.0
20260905205601 82 172 0.0 0.0 0.00 0.00 0.00 68 1013.1
20260905205100 83 166 0.0 0.0 0.00 0.00 0.00 72 1012.9
20260905204555 84 176 0.0 0.0 0.00 0.00 0.00 68 1012.9
20260905204050 84 174 0.0 0.0 0.00 0.00 0.00 69 1013.3
20260905203550 85 172 0.0 0.0 0.00 0.00 0.00 65 1013.3
20260905203045 88 188 0.0 0.0 0.00 0.00 0.00 55 1013.5
20260905202541 87 194 0.0 0.0 0.00 0.00 0.00 54 1013.4
20260905202036 87 193 0.0 0.0 0.00 0.00 0.00 56 1013.5
20260905201532 86 211 0.0 0.0 0.00 0.00 0.00 57 1013.7
20260905201031 83 187 0.0 0.0 0.00 0.00 0.00 64 1013.4
20260905200526 83 186 0.0 0.0 0.00 0.00 0.00 60 1013.4
20260905200020 80 186 0.0 0.0 0.00 0.00 0.00 66 1013.6
20260905195515 77 190 0.0 0.0 0.00 0.00 0.00 72 1013.5
20260905195010 76 193 0.0 0.0 0.00 0.00 0.00 79 1013.8
20260905194509 76 207 0.0 0.0 0.00 0.00 0.00 80 1013.7
20260905194003 76 216 0.0 2.0 0.00 0.00 0.00 79 1013.8
20260905193458 76 183 0.0 0.0 0.00 0.00 0.00 80 1013.7
20260905192954 77 203 2.0 3.0 0.00 0.00 0.00 79 1014.0
20260905192449 78 238 2.0 3.0 0.00 0.00 0.00 78 1014.2
20260905191945 78 177 0.0 0.0 0.00 0.00 0.00 77 1014.4
20260905191443 80 181 0.0 0.0 0.00 0.00 0.00 77 1014.2
20260905190937 82 174 0.0 0.0 0.00 0.00 0.00 78 1014.4
20260905190436 82 180 0.0 0.0 0.00 0.00 0.00 78 1014.5
20260905185934 83 236 1.0 2.0 0.00 0.00 0.00 75 1014.5
20260905185430 84 66 1.0 2.0 0.00 0.00 0.00 73 1014.3
20260905184928 84 174 0.0 0.0 0.00 0.00 0.00 72 1014.2
20260905184423 85 200 0.0 0.0 0.00 0.00 0.00 71 1014.4
20260905183922 86 187 0.0 0.0 0.00 0.00 0.00 69 1014.3
20260905183416 87 180 0.0 0.0 0.00 0.00 0.00 68 1014.1
20260905182912 89 177 0.0 0.0 0.00 0.00 0.00 63 1014.3
20260905182410 90 150 4.0 7.0 0.00 0.00 0.00 62 1014.1
20260905181906 89 170 2.0 3.0 0.00 0.00 0.00 63 1014.3
20260905181401 89 189 4.0 5.0 0.00 0.00 0.00 62 1014.3
20260905180859 88 237 1.0 2.0 0.00 0.00 0.00 62 1014.4
20260905180355 89 175 0.0 0.0 0.00 0.00 0.00 61 1014.6
20260905175850 92 177 2.0 3.0 0.00 0.00 0.00 60 1014.5
20260905175344 91 201 0.0 0.0 0.00 0.00 0.00 60 1014.6
20260905174839 89 169 2.0 3.0 0.00 0.00 0.00 62 1014.5
20260905174335 89 180 0.0 0.0 0.00 0.00 0.00 61 1014.5
20260905173831 89 210 1.0 2.0 0.00 0.00 0.00 61 1014.6
20260905173327 89 155 0.0 2.0 0.00 0.00 0.00 62 1014.6
20260905172826 89 232 1.0 2.0 0.00 0.00 0.00 63 1014.6
20260905172324 89 175 2.0 2.0 0.00 0.00 0.00 63 1014.8
20260905171821 89 172 2.0 3.0 0.00 0.00 0.00 62 1014.7
20260905171317 88 192 0.0 2.0 0.00 0.00 0.00 63 1014.9
20260905170814 87 148 2.0 3.0 0.00 0.00 0.00 64 1015.0
20260905170309 87 285 2.0 5.0 0.00 0.00 0.00 68 1014.9
20260905165807 87 202 0.0 0.0 0.00 0.00 0.00 70 1015.0
20260905165258 87 181 1.0 2.0 0.00 0.00 0.00 70 1015.2
20260905164758 86 273 0.0 2.0 0.00 0.00 0.00 69 1015.0
20260905164258 86 131 3.0 3.0 0.00 0.00 0.00 70 1015.0
20260905163748 86 181 0.0 0.0 0.00 0.00 0.00 69 1015.1
20260905163244 85 172 0.0 0.0 0.00 0.00 0.00 71 1015.4
20260905162740 85 211 2.0 3.0 0.00 0.00 0.00 70 1015.4
20260905162240 85 185 0.0 0.0 0.00 0.00 0.00 73 1015.6
20260905161734 84 168 0.0 0.0 0.00 0.00 0.00 73 1015.4
20260905161233 84 177 0.0 0.0 0.00 0.00 0.00 74 1015.4
20260905160732 83 188 0.0 0.0 0.00 0.00 0.00 74 1015.6
20260905160232 83 186 0.0 0.0 0.00 0.00 0.00 75 1015.6
20260905155727 83 146 1.0 2.0 0.00 0.00 0.00 75 1015.7
20260905155225 82 186 0.0 0.0 0.00 0.00 0.00 76 1015.7
20260905154719 82 194 1.0 2.0 0.00 0.00 0.00 76 1015.5
20260905154215 82 185 0.0 0.0 0.00 0.00 0.00 78 1015.7
20260905153711 82 190 0.0 0.0 0.00 0.00 0.00 77 1015.7
20260905153207 82 300 2.0 2.0 0.00 0.00 0.00 78 1015.7
20260905152701 81 180 0.0 0.0 0.00 0.00 0.00 80 1015.7
20260905152155 80 211 0.0 0.0 0.00 0.00 0.00 80 1015.5
20260905151650 80 228 2.0 2.0 0.00 0.00 0.00 79 1015.7
20260905151146 80 190 0.0 0.0 0.00 0.00 0.00 81 1015.5
20260905150641 80 211 0.0 0.0 0.00 0.00 0.00 79 1015.8
20260905150139 80 190 0.0 2.0 0.00 0.00 0.00 82 1015.4
20260905145637 79 159 1.0 2.0 0.00 0.00 0.00 82 1015.8
20260905145137 78 210 0.0 0.0 0.00 0.00 0.00 83 1015.9
20260905144627 78 208 3.0 3.0 0.00 0.00 0.00 82 1015.7
20260905144125 78 186 0.0 0.0 0.00 0.00 0.00 86 1015.8
20260905143620 78 192 0.0 0.0 0.00 0.00 0.00 85 1015.8
20260905143115 78 198 0.0 0.0 0.00 0.00 0.00 84 1015.8
20260905142614 79 179 0.0 0.0 0.00 0.00 0.00 83 1015.7
20260905142113 78 161 0.0 0.0 0.00 0.00 0.00 83 1015.6
20260905141613 78 161 0.0 0.0 0.00 0.00 0.00 84 1015.9
20260905141110 77 159 0.0 0.0 0.00 0.00 0.00 84 1015.9
20260905140604 77 162 0.0 0.0 0.00 0.00 0.00 85 1015.9
20260905140103 76 162 0.0 0.0 0.00 0.00 0.00 84 1015.7
20260905135559 75 162 0.0 0.0 0.00 0.00 0.00 86 1016.0
20260905135054 75 158 0.0 0.0 0.00 0.00 0.00 88 1015.9
20260905134549 75 164 0.0 0.0 0.00 0.00 0.00 88 1015.9
20260905134047 75 163 0.0 0.0 0.00 0.00 0.00 88 1016.1
20260905133543 75 163 0.0 0.0 0.00 0.00 0.00 87 1016.0
20260905133043 75 163 0.0 0.0 0.00 0.00 0.00 88 1016.0
20260905132543 75 163 0.0 0.0 0.00 0.00 0.00 89 1016.0
20260905132038 75 160 0.0 0.0 0.00 0.00 0.00 88 1015.9
20260905131533 75 165 0.0 0.0 0.00 0.00 0.00 87 1016.1
20260905131028 75 163 0.0 0.0 0.00 0.00 0.00 84 1016.2
20260905130527 75 162 0.0 0.0 0.00 0.00 0.00 85 1016.0
20260905130023 75 162 0.0 0.0 0.00 0.00 0.00 86 1016.0
20260905125522 74 162 0.0 0.0 0.00 0.00 0.00 85 1016.1
20260905125018 74 162 0.0 0.0 0.00 0.00 0.00 86 1016.1
20260905124514 74 162 0.0 0.0 0.00 0.00 0.00 86 1016.4
20260905124010 74 162 0.0 0.0 0.00 0.00 0.00 85 1015.9
20260905123505 74 161 0.0 0.0 0.00 0.00 0.00 85 1016.4
20260905123001 74 161 0.0 0.0 0.00 0.00 0.00 88 1016.4
20260905122455 74 161 0.0 0.0 0.00 0.00 0.00 88 1016.1
20260905121950 74 161 0.0 0.0 0.00 0.00 0.00 86 1016.0
20260905121446 75 161 0.0 0.0 0.00 0.00 0.00 87 1016.0
20260905120945 74 161 0.0 0.0 0.00 0.00 0.00 87 1015.8
20260905120439 74 161 0.0 0.0 0.00 0.00 0.00 86 1015.8
20260905115934 74 161 0.0 0.0 0.00 0.00 0.00 85 1015.9
20260905115433 74 161 0.0 0.0 0.00 0.00 0.00 84 1015.8
20260905114923 75 162 0.0 0.0 0.00 0.00 0.00 83 1015.5
20260905114422 75 163 0.0 0.0 0.00 0.00 0.00 83 1015.8
20260905113921 75 163 0.0 0.0 0.00 0.00 0.00 83 1015.5
20260905113417 75 164 0.0 0.0 0.00 0.00 0.00 82 1015.4
20260905112913 75 166 0.0 0.0 0.00 0.00 0.00 83 1015.4
20260905112408 75 167 0.0 0.0 0.00 0.00 0.00 82 1015.3
20260905111903 75 168 0.0 0.0 0.00 0.00 0.00 82 1015.2
20260905111402 75 168 0.0 0.0 0.00 0.00 0.00 82 1015.0
20260905110902 75 168 0.0 0.0 0.00 0.00 0.00 81 1015.2
20260905110356 75 167 0.0 0.0 0.00 0.00 0.00 82 1015.1
20260905105852 75 167 0.0 0.0 0.00 0.00 0.00 81 1015.1
20260905105351 74 167 0.0 0.0 0.00 0.00 0.00 82 1015.1
20260905104845 74 167 0.0 0.0 0.00 0.00 0.00 83 1015.2
20260905104342 74 166 0.0 0.0 0.00 0.00 0.00 84 1014.8
20260905103841 74 166 0.0 0.0 0.00 0.00 0.00 83 1014.9
20260905103337 74 166 0.0 0.0 0.00 0.00 0.00 82 1014.8
20260905102832 74 166 0.0 0.0 0.00 0.00 0.00 82 1014.7
20260905102329 74 165 0.0 0.0 0.00 0.00 0.00 82 1014.6
20260905101829 74 165 0.0 0.0 0.00 0.00 0.00 84 1014.8
20260905101327 74 164 0.0 0.0 0.00 0.00 0.00 83 1014.8
20260905100821 74 164 0.0 0.0 0.00 0.00 0.00 83 1014.6
20260905100317 75 164 0.0 0.0 0.00 0.00 0.00 82 1014.7
20260905095816 75 164 0.0 0.0 0.00 0.00 0.00 82 1014.7
20260905095311 74 164 0.0 0.0 0.00 0.00 0.00 82 1014.7
20260905094805 74 164 0.0 0.0 0.00 0.00 0.00 83 1014.8
20260905094302 74 164 0.0 0.0 0.00 0.00 0.00 84 1014.5
20260905093800 74 164 0.0 0.0 0.00 0.00 0.00 84 1014.6
20260905093256 74 163 0.0 0.0 0.00 0.00 0.00 84 1014.6
20260905092752 74 163 0.0 0.0 0.00 0.00 0.00 85 1014.5
20260905092246 74 163 0.0 0.0 0.00 0.00 0.00 84 1014.6
20260905091741 74 163 0.0 0.0 0.00 0.00 0.00 84 1014.5
20260905091236 75 163 0.0 0.0 0.00 0.00 0.00 83 1014.6
20260905090735 75 163 0.0 0.0 0.00 0.00 0.00 81 1014.5
20260905090231 75 163 0.0 0.0 0.00 0.00 0.00 81 1014.4
20260905085730 75 163 0.0 0.0 0.00 0.00 0.00 82 1014.6
20260905085225 75 163 0.0 0.0 0.00 0.00 0.00 82 1014.5
20260905084725 75 163 0.0 0.0 0.00 0.00 0.00 82 1014.5
20260905084224 75 163 0.0 0.0 0.00 0.00 0.00 81 1014.5
20260905083720 75 163 0.0 0.0 0.00 0.00 0.00 81 1014.4
20260905083215 75 163 0.0 0.0 0.00 0.00 0.00 82 1014.4
20260905082711 75 162 0.0 0.0 0.00 0.00 0.00 83 1014.7
20260905082206 75 162 0.0 0.0 0.00 0.00 0.00 83 1014.7
20260905081700 75 162 0.0 0.0 0.00 0.00 0.00 83 1014.7
20260905081156 75 162 0.0 0.0 0.00 0.00 0.00 83 1014.8
20260905080650 75 162 0.0 0.0 0.00 0.00 0.00 83 1014.7
20260905080150 74 162 0.0 0.0 0.00 0.00 0.00 84 1014.6
20260905075649 74 162 0.0 0.0 0.00 0.00 0.00 87 1014.5
20260905075148 74 162 0.0 0.0 0.00 0.00 0.00 88 1014.8
20260905074647 74 162 0.0 0.0 0.00 0.00 0.00 87 1014.8
20260905074143 74 162 0.0 0.0 0.00 0.00 0.00 89 1014.9
20260905073639 73 162 0.0 0.0 0.00 0.00 0.00 91 1014.9
20260905073134 74 161 0.0 0.0 0.00 0.00 0.00 91 1015.0
20260905072633 74 160 1.0 2.0 0.00 0.00 0.00 90 1015.0
20260905072129 75 163 0.0 0.0 0.00 0.00 0.00 89 1014.9
20260905071625 75 163 0.0 0.0 0.00 0.00 0.00 87 1015.1
20260905071121 75 163 0.0 0.0 0.00 0.00 0.00 83 1015.0
20260905070616 74 163 0.0 0.0 0.00 0.00 0.00 85 1014.9
20260905070112 74 162 0.0 0.0 0.00 0.00 0.00 87 1015.1
20260905065610 75 162 0.0 0.0 0.00 0.00 0.00 88 1015.0
20260905065104 75 162 0.0 0.0 0.00 0.00 0.00 85 1015.0
20260905064559 76 162 0.0 0.0 0.00 0.00 0.00 84 1015.1
20260905064055 76 162 0.0 0.0 0.00 0.00 0.00 84 1015.1
20260905063553 76 162 0.0 0.0 0.00 0.00 0.00 84 1015.0
20260905063050 76 162 0.0 0.0 0.00 0.00 0.00 84 1015.2
20260905062544 76 162 0.0 0.0 0.00 0.00 0.00 84 1015.2
20260905062039 76 162 0.0 0.0 0.00 0.00 0.00 84 1015.2
20260905061534 76 162 0.0 0.0 0.00 0.00 0.00 83 1015.3
20260905061033 76 162 0.0 0.0 0.00 0.00 0.00 84 1015.3
20260905060530 76 162 0.0 0.0 0.00 0.00 0.00 84 1015.5
20260905060025 76 162 0.0 0.0 0.00 0.00 0.00 84 1015.4
20260905055524 76 162 0.0 0.0 0.00 0.00 0.00 85 1015.4
20260905055019 76 161 0.0 0.0 0.00 0.00 0.00 85 1015.3
20260905054514 76 161 0.0 0.0 0.00 0.00 0.00 87 1015.4
20260905054010 76 161 0.0 0.0 0.00 0.00 0.00 87 1015.3
20260905053503 76 161 0.0 0.0 0.00 0.00 0.00 87 1015.6
20260905052959 75 161 0.0 0.0 0.00 0.00 0.00 87 1015.4
20260905052453 75 161 0.0 0.0 0.00 0.00 0.00 89 1015.2
20260905051953 75 160 0.0 0.0 0.00 0.00 0.00 88 1015.3
20260905051448 75 160 0.0 0.0 0.00 0.00 0.00 88 1015.5
20260905050946 75 160 0.0 0.0 0.00 0.00 0.00 88 1015.6
20260905050441 75 160 0.0 0.0 0.00 0.00 0.00 89 1015.4
20260905045936 75 160 0.0 0.0 0.00 0.00 0.00 89 1015.4
20260905045425 75 160 0.0 0.0 0.00 0.00 0.00 89 1015.5
20260905044921 75 160 0.0 0.0 0.00 0.00 0.00 89 1015.1
20260905044410 75 160 0.0 0.0 0.00 0.00 0.00 89 1015.4
20260905043909 76 159 0.0 0.0 0.00 0.00 0.00 88 1015.4
20260905043403 76 159 0.0 0.0 0.00 0.00 0.00 86 1015.6
20260905042858 76 158 0.0 0.0 0.00 0.00 0.00 88 1015.6
20260905042353 77 160 0.0 0.0 0.00 0.00 0.00 86 1015.5
20260905041847 76 160 0.0 0.0 0.00 0.00 0.00 85 1015.2
20260905041344 76 160 0.0 0.0 0.00 0.00 0.00 88 1015.3
20260905040838 75 160 0.0 0.0 0.00 0.00 0.00 89 1015.4
20260905040336 75 160 0.0 0.0 0.00 0.00 0.00 91 1015.4
20260905035830 75 160 0.0 0.0 0.00 0.00 0.00 91 1015.5
20260905035326 75 160 0.0 0.0 0.00 0.00 0.00 91 1015.6
20260905034822 75 160 0.0 0.0 0.00 0.00 0.00 91 1015.5
20260905034318 76 159 0.0 0.0 0.00 0.00 0.00 90 1015.6
20260905033816 76 160 0.0 0.0 0.00 0.00 0.00 90 1015.6
20260905033312 76 160 0.0 0.0 0.00 0.00 0.00 90 1015.7
20260905032811 77 161 0.0 0.0 0.00 0.00 0.00 89 1015.6
20260905032307 77 160 0.0 0.0 0.00 0.00 0.00 87 1015.9
20260905031802 77 154 0.0 0.0 0.00 0.00 0.00 87 1015.8